Voltar ao catálogo

METEOR 3-3

AtivoMeteoPO
NORAD 20305·PAYLOAD·🇷🇺 Russia

Lançado Oct 24, 1989 de Plesetsk Cosmodrome

Loading…

Próximas Passagens (próximas 24 horas)

TLE

AtualizadoSource: Space-Track

Época: Sep 14, 2026, 08:43 UTC

1 20305U 89086A   26257.36334194 -.00000736  00000-0 -23265-2 0  9994
2 20305  82.5508  45.2889 0006047 312.6834  73.7078 13.04704566758244

Acompanhe METEOR 3-3 em tempo real com AllMySat

Download on the App Store